Weather History for Laramie, WY

Change the Weather History Date:

Saturday, April 13, 2013

  Actual Average Record
Temperature  
Mean Temperature 38 °F 37 °F  
Max Temperature 51 °F 50 °F 72 °F (2006)
Min Temperature 24 °F 24 °F -3 °F (1997)
Degree Days  
Heating Degree Days 27 28  
Month to date heating degree days 409 384  
Since 1 July heating degree days 7374 7619  
Cooling Degree Days 0 0  
Month to date cooling degree days 0 0  
Year to date cooling degree days 0 0  
Moisture  
Dew Point 25 °F    
Average Humidity 58    
Maximum Humidity 89    
Minimum Humidity 26    
Precipitation  
Precipitation 0.18 in 0.04 in 0.68 in (1967)
Month to date precipitation 0.31 0.38  
Year to date precipitation 1.22 1.57  
Sea Level Pressure  
Sea Level Pressure 29.55 in    
Wind  
Wind Speed 18 mph (WSW)    
Max Wind Speed 43 mph    
Max Gust Speed 51 mph    
Visibility 10 miles    
Events Rain , Snow    
T = Trace of Precipitation, MM = Missing Value Source: NWS Daily Summary

Daily Weather History Graph

Daily Weather History Graph

Search for Another Location

Airport:

Trip Planner

Search our weather history database for the weather conditions in past years. The results will help you decide how hot, cold, wet, or windy it might be!

Date:

Astronomy

Apr. 13, 2013 Rise Set
Actual Time 6:25 AM MDT 7:41 PM MDT
Civil Twilight 5:57 AM MDT 8:09 PM MDT
Nautical Twilight 5:23 AM MDT 8:44 PM MDT
Astronomical Twilight 4:47 AM MDT 9:20 PM MDT
Moon 8:17 AM MDT (4/13) 11:09 PM MDT (4/13)
Length of Visible Light 14h 12m
Length of Day
13h 15m
Waxing Crescent, 11% of the Moon is Illuminated
Apr 13
Waxing Crescent
Apr 18
First Quarter
Apr 25
Full
May 2
Last Quarter
May 9
New

Hourly Weather History & Observations

Time (MDT) Temp. Windchill Dew Point Humidity Pressure Visibility Wind Dir Wind Speed Gust Speed Precip Events Conditions
12:53 AM 26.1 °F 17.6 °F 23.0 °F 88% 29.87 in 10.0 mi SSE 8.1 mph - N/A   Clear
1:53 AM 27.0 °F 18.0 °F 23.0 °F 85% 29.84 in - South 9.2 mph - N/A   Clear
2:53 AM 26.1 °F 15.6 °F 21.9 °F 84% 29.77 in - South 11.5 mph - N/A   Clear
3:53 AM 25.0 °F 15.5 °F 21.0 °F 85% 29.74 in - SSE 9.2 mph - N/A   Clear
4:53 AM 25.0 °F 17.1 °F 19.9 °F 81% 29.71 in - SSE 6.9 mph - N/A   Clear
5:53 AM 30.9 °F 22.8 °F 19.0 °F 61% 29.63 in - SW 9.2 mph - N/A   Clear
6:53 AM 36.0 °F 28.0 °F 19.0 °F 50% 29.58 in - SSW 11.5 mph - N/A   Clear
7:53 AM 37.0 °F 29.3 °F 19.9 °F 50% 29.62 in - WSW 11.5 mph - N/A   Clear
8:53 AM 44.1 °F 35.2 °F 19.0 °F 37% 29.56 in - WSW 23.0 mph 28.8 mph N/A   Clear
9:53 AM 46.0 °F 38.5 °F 14.0 °F 28% 29.55 in - West 19.6 mph 29.9 mph N/A   Clear
10:53 AM 46.9 °F - 15.1 °F 28% 29.53 in - WSW 26.5 mph 33.4 mph N/A   Partly Cloudy
11:53 AM 46.0 °F 35.1 °F 18.0 °F 33% 29.49 in - West 42.6 mph 50.6 mph N/A   Scattered Clouds
12:53 PM 46.0 °F 35.5 °F 19.9 °F 35% 29.49 in - WSW 39.1 mph 48.3 mph N/A   Mostly Cloudy
1:53 PM 48.9 °F - 21.0 °F 33% 29.45 in - WSW 31.1 mph 38.0 mph N/A   Clear
2:53 PM 46.0 °F 37.0 °F 21.9 °F 39% 29.48 in - WSW 27.6 mph 35.7 mph N/A   Overcast
3:53 PM 46.9 °F - 23.0 °F 39% 29.46 in - WSW 27.6 mph 34.5 mph N/A   Overcast
4:53 PM 48.0 °F - 26.1 °F 42% 29.44 in - WSW 26.5 mph 34.5 mph N/A   Mostly Cloudy
5:53 PM 44.1 °F 35.0 °F 28.9 °F 55% 29.43 in - WSW 24.2 mph 32.2 mph N/A   Overcast
6:53 PM 39.0 °F 31.4 °F 30.9 °F 73% 29.42 in - SW 12.7 mph - N/A   Overcast
7:53 PM 37.0 °F 30.4 °F 33.1 °F 86% 29.43 in - NW 9.2 mph - 0.00 in Rain Light Rain
8:09 PM 35.6 °F 28.0 °F 33.8 °F 93% 29.53 in - NW 10.4 mph - 0.00 in Rain Light Rain
8:31 PM 33.8 °F 25.3 °F 32.0 °F 93% 29.54 in - West 11.5 mph - 0.05 in Snow Snow
8:53 PM 32.0 °F 25.6 °F 32.0 °F 100% 29.43 in - WSW 6.9 mph - 0.11 in Snow Light Snow
9:03 PM 32.0 °F 26.4 °F 32.0 °F 100% 29.55 in - West 5.8 mph - 0.01 in Snow Light Snow
9:27 PM 32.0 °F 27.5 °F 32.0 °F 100% 29.55 in - WSW 4.6 mph - 0.04 in Snow Snow
9:29 PM 32.0 °F 27.5 °F 32.0 °F 100% 29.55 in - SW 4.6 mph - 0.05 in Snow Snow
9:40 PM 32.0 °F 26.4 °F 32.0 °F 100% 29.55 in - SSW 5.8 mph - 0.06 in Snow Snow
9:50 PM 33.8 °F 27.7 °F 30.2 °F 87% 29.56 in - SW 6.9 mph - 0.06 in Snow Light Snow
9:53 PM 33.1 °F 26.1 °F 30.9 °F 92% 29.43 in - SSW 8.1 mph - 0.06 in Snow Light Snow
10:21 PM 33.8 °F 25.3 °F 32.0 °F 93% 29.56 in - West 11.5 mph - 0.01 in Snow Light Snow
10:34 PM 33.8 °F 21.3 °F 30.2 °F 87% 29.57 in - WNW 24.2 mph 32.2 mph 0.01 in Snow Snow
10:53 PM 32.0 °F 24.2 °F 30.0 °F 92% 29.42 in - WSW 9.2 mph - 0.01 in   Overcast
11:53 PM 32.0 °F 20.1 °F 21.9 °F 66% 29.43 in - WSW 19.6 mph - N/A   Overcast